Weather History for La Crosse, WI

Change the Weather History Date:

Thursday, July 11, 2013

  Actual Average Record
Temperature  
Mean Temperature 73 °F 74 °F  
Max Temperature 87 °F 85 °F 104 °F (1936)
Min Temperature 59 °F 64 °F 50 °F (1978)
Degree Days  
Heating Degree Days 0 0  
Month to date heating degree days 0 0  
Since 1 June heating degree days 44 38  
Since 1 July heating degree days 0 0  
Cooling Degree Days 8 9  
Month to date cooling degree days 121 98  
Year to date cooling degree days 335 312  
Since 1 June cooling degree days 275 264  
Growing Degree Days 23 (Base 50)    
Moisture  
Dew Point 57 °F    
Average Humidity 61    
Maximum Humidity 93    
Minimum Humidity 29    
Precipitation  
Precipitation 0.00 in 0.14 in 3.10 in (1981)
Month to date precipitation 0.27 1.52  
Year to date precipitation 25.02 16.93  
Snow  
Snow 0.00 in 0.00 in 0.00 in (2002)
Month to date snowfall 0.0 0.0  
Since 1 June snowfall 0.0 0.0  
Since 1 July snowfall 0.0 0.0  
Snow Depth 0.00 in    
Sea Level Pressure  
Sea Level Pressure 30.06 in    
Wind  
Wind Speed 5 mph (South)    
Max Wind Speed 12 mph    
Max Gust Speed 14 mph    
Visibility 10 miles    
Events      
T = Trace of Precipitation, MM = Missing Value Source: NWS Daily Summary

Daily Weather History Graph

Daily Weather History Graph

Search for Another Location

Airport:

Trip Planner

Search our weather history database for the weather conditions in past years. The results will help you decide how hot, cold, wet, or windy it might be!

Date:

Astronomy

Jul. 11, 2013 Rise Set
Actual Time 5:33 AM CDT 8:47 PM CDT
Civil Twilight 4:58 AM CDT 9:22 PM CDT
Nautical Twilight 4:12 AM CDT 10:07 PM CDT
Astronomical Twilight 3:16 AM CDT 11:03 PM CDT
Moon 9:00 AM CDT (7/11) 10:18 PM CDT (7/11)
Length of Visible Light 16h 24m
Length of Day
15h 13m
Waxing Crescent, 11% of the Moon is Illuminated
Jul 11
Waxing Crescent
Jul 15
First Quarter
Jul 22
Full
Jul 29
Last Quarter
Aug 6
New

Hourly Weather History & Observations

Time (CDT) Temp. Heat Index Dew Point Humidity Pressure Visibility Wind Dir Wind Speed Gust Speed Precip Events Conditions
12:53 AM 61.0 °F - 57.0 °F 87% 30.04 in 10.0 mi Calm Calm - N/A   Clear
1:53 AM 62.1 °F - 57.9 °F 86% 30.04 in 10.0 mi SE 4.6 mph - N/A   Clear
2:53 AM 63.0 °F - 59.0 °F 87% 30.05 in 10.0 mi SE 3.5 mph - N/A   Clear
3:53 AM 61.0 °F - 57.9 °F 90% 30.06 in 10.0 mi ESE 3.5 mph - N/A   Clear
4:53 AM 60.1 °F - 57.0 °F 90% 30.07 in 10.0 mi ESE 3.5 mph - N/A   Clear
5:53 AM 60.1 °F - 57.9 °F 93% 30.09 in 9.0 mi SSE 4.6 mph - N/A   Clear
6:53 AM 63.0 °F - 60.1 °F 90% 30.09 in 9.0 mi SE 3.5 mph - N/A   Clear
7:53 AM 66.0 °F - 59.0 °F 78% 30.10 in 10.0 mi SSE 3.5 mph - N/A   Clear
8:53 AM 71.1 °F - 60.1 °F 68% 30.10 in 10.0 mi Calm Calm - N/A   Clear
9:53 AM 75.9 °F - 57.0 °F 52% 30.10 in 10.0 mi NW 5.8 mph - N/A   Clear
10:53 AM 78.1 °F - 59.0 °F 52% 30.09 in 10.0 mi Calm Calm - N/A   Clear
11:53 AM 81.0 °F 81.0 °F 57.0 °F 44% 30.09 in 10.0 mi Calm Calm - N/A   Clear
12:53 PM 82.9 °F - 52.0 °F 34% 30.08 in 9.0 mi WSW 8.1 mph - N/A   Partly Cloudy
1:53 PM 84.0 °F - 50.0 °F 31% 30.07 in 10.0 mi WSW 6.9 mph - N/A   Clear
2:53 PM 86.0 °F - 50.0 °F 29% 30.05 in 10.0 mi West 5.8 mph - N/A   Clear
3:53 PM 86.0 °F - 51.1 °F 30% 30.05 in 10.0 mi Variable 3.5 mph - N/A   Clear
4:53 PM 84.9 °F 83.3 °F 54.0 °F 34% 30.04 in 10.0 mi WSW 8.1 mph - N/A   Clear
5:53 PM 84.0 °F 82.6 °F 54.0 °F 35% 30.03 in 10.0 mi SSW 8.1 mph - N/A   Clear
6:53 PM 82.9 °F 82.0 °F 55.0 °F 38% 30.03 in 10.0 mi SW 8.1 mph - N/A   Clear
7:53 PM 81.0 °F 80.7 °F 55.0 °F 41% 30.02 in 10.0 mi SSW 8.1 mph - N/A   Clear
8:53 PM 75.9 °F - 57.9 °F 54% 30.02 in 10.0 mi SSW 4.6 mph - N/A   Clear
9:53 PM 72.0 °F - 60.1 °F 66% 30.03 in 10.0 mi Calm Calm - N/A   Clear
10:53 PM 70.0 °F - 61.0 °F 73% 30.03 in 10.0 mi SE 3.5 mph - N/A   Clear
11:53 PM 68.0 °F - 61.0 °F 78% 30.03 in 9.0 mi SSE 4.6 mph - N/A   Clear